Change the Weather History Date:

Sunday, March 31, 2013

  Actual Average Record
Temperature  
Mean Temperature 20 °F 36 °F  
Max Temperature 28 °F 46 °F 70 °F (2012)
Min Temperature 12 °F 26 °F -7 °F (1936)
Degree Days  
Heating Degree Days 45 29  
Month to date heating degree days 1580 1135  
Since 1 July heating degree days 8310 7715  
Cooling Degree Days 0 0  
Month to date cooling degree days 0 0  
Year to date cooling degree days 0 0  
Moisture  
Dew Point 15 °F    
Average Humidity 70    
Maximum Humidity 81    
Minimum Humidity 59    
Precipitation  
Precipitation T in 0.04 in 0.29 in (1974)
Month to date precipitation 0.61 0.84  
Year to date precipitation 1.15 1.75  
Sea Level Pressure  
Sea Level Pressure 30.17 in    
Wind  
Wind Speed 12 mph (NW)    
Max Wind Speed 24 mph    
Max Gust Speed 30 mph    
Visibility 8 miles    
Events Snow    
T = Trace of Precipitation, MM = Missing Value Source: NWS Daily Summary

Daily Weather History Graph

Daily Weather History Graph

Search for Another Location

Airport or City:

Trip Planner

Search our weather history database for the weather conditions in past years. The results will help you decide how hot, cold, wet, or windy it might be!

Date:

Astronomy

Mar. 31, 2013 Rise Set
Actual Time 7:24 AM CDT 8:14 PM CDT
Civil Twilight 6:53 AM CDT 8:46 PM CDT
Nautical Twilight 6:15 AM CDT 9:24 PM CDT
Astronomical Twilight 5:35 AM CDT 10:03 PM CDT
Moon 12:41 AM CDT (3/31) 9:54 AM CDT (3/31)
Length of Visible Light 13h 53m
Length of Day
12h 49m
Waning Gibbous, 77% of the Moon is Illuminated
Mar 31
Waning Gibbous
Apr 2
Last Quarter
Apr 10
New
Apr 18
First Quarter
Apr 25
Full

Hourly Weather History & Observations

Time (CDT) Temp. Windchill Dew Point Humidity Pressure Visibility Wind Dir Wind Speed Gust Speed Precip Events Conditions
12:54 AM 28.0 °F 13.6 °F 21.0 °F 75% 30.06 in 10.0 mi WNW 24.2 mph 31.1 mph N/A   Clear
1:54 AM 27.0 °F 12.8 °F 19.9 °F 75% 30.06 in 10.0 mi WNW 21.9 mph - N/A   Clear
2:54 AM 26.1 °F 12.7 °F 19.0 °F 75% 30.08 in 10.0 mi WNW 18.4 mph - N/A   Clear
3:23 AM 24.8 °F 10.7 °F 19.4 °F 80% 30.01 in 10.0 mi WNW 19.6 mph - N/A   Mostly Cloudy
3:42 AM 24.8 °F 11.5 °F 17.6 °F 74% 30.01 in 10.0 mi NW 17.3 mph - N/A   Mostly Cloudy
3:54 AM 25.0 °F 12.2 °F 18.0 °F 75% 30.09 in 10.0 mi NW 16.1 mph - N/A   Partly Cloudy
4:54 AM 24.1 °F 13.7 °F 18.0 °F 77% 30.09 in 10.0 mi NW 10.4 mph - N/A   Mostly Cloudy
5:54 AM 23.0 °F 13.1 °F 18.0 °F 81% 30.12 in 10.0 mi NW 9.2 mph - N/A   Overcast
6:21 AM 23.0 °F 13.1 °F 17.6 °F 80% 30.05 in 10.0 mi NW 9.2 mph - N/A   Overcast
6:54 AM 23.0 °F 13.9 °F 18.0 °F 81% 30.14 in 10.0 mi NW 8.1 mph - N/A   Overcast
7:51 AM 21.2 °F 10.9 °F 17.6 °F 86% 30.09 in 2.0 mi NW 9.2 mph - 0.00 in Snow Light Snow
7:54 AM 21.9 °F 11.7 °F 17.1 °F 82% 30.17 in 2.0 mi NW 9.2 mph - 0.00 in Snow Light Snow
8:00 AM 21.2 °F 10.9 °F 17.6 °F 86% 30.10 in 3.0 mi NNW 9.2 mph - 0.00 in Snow Light Snow
8:10 AM 21.2 °F 10.9 °F 17.6 °F 86% 30.10 in 2.5 mi NNW 9.2 mph - 0.00 in Snow Light Snow
8:20 AM 21.2 °F 10.1 °F 17.6 °F 86% 30.10 in 1.5 mi NNW 10.4 mph - 0.00 in Snow Light Snow
8:27 AM 21.2 °F 10.9 °F 17.6 °F 86% 30.10 in 2.5 mi NNW 9.2 mph - 0.00 in Snow Light Snow
8:35 AM 21.2 °F 10.1 °F 15.8 °F 80% 30.11 in 5.0 mi NNW 10.4 mph - 0.00 in Snow Light Snow
8:54 AM 21.0 °F 12.4 °F 17.1 °F 85% 30.19 in 7.0 mi NNW 6.9 mph - 0.00 in   Overcast
9:54 AM 21.9 °F 12.5 °F 14.0 °F 72% 30.19 in 10.0 mi NNW 8.1 mph - N/A   Overcast
10:06 AM 21.2 °F 12.6 °F 12.2 °F 68% 30.11 in 10.0 mi North 6.9 mph - N/A   Overcast
10:54 AM 23.0 °F 13.1 °F 14.0 °F 68% 30.20 in 10.0 mi North 9.2 mph - N/A   Scattered Clouds
11:54 AM 23.0 °F 11.7 °F 12.0 °F 63% 30.21 in 10.0 mi North 11.5 mph - N/A   Clear
12:54 PM 23.0 °F 12.4 °F 10.9 °F 60% 30.23 in 10.0 mi North 10.4 mph - N/A   Clear
1:54 PM 23.0 °F 12.4 °F 12.9 °F 65% 30.25 in 10.0 mi NNW 10.4 mph - N/A   Clear
2:54 PM 24.1 °F 11.5 °F 12.0 °F 60% 30.25 in 10.0 mi NNW 15.0 mph - N/A   Clear
3:54 PM 24.1 °F 11.0 °F 12.0 °F 60% 30.27 in 10.0 mi NNW 16.1 mph - N/A   Clear
4:54 PM 24.1 °F 11.0 °F 12.9 °F 62% 30.28 in 10.0 mi NW 16.1 mph - N/A   Clear
5:54 PM 24.1 °F 11.5 °F 12.0 °F 60% 30.28 in 10.0 mi NW 15.0 mph - N/A   Clear
6:54 PM 23.0 °F 10.6 °F 10.9 °F 60% 30.30 in 10.0 mi NW 13.8 mph - N/A   Clear
7:54 PM 19.9 °F 9.3 °F 10.9 °F 68% 30.32 in 10.0 mi WNW 9.2 mph - N/A   Clear
8:54 PM 18.0 °F 8.7 °F 10.0 °F 71% 30.32 in 10.0 mi WNW 6.9 mph - N/A   Clear
9:54 PM 17.1 °F 4.3 °F 10.9 °F 77% 30.33 in 10.0 mi West 11.5 mph - N/A   Clear
10:54 PM 17.6 °F 4.3 °F 8.6 °F 68% 30.24 in 10.0 mi WNW 12.7 mph - N/A   Clear
11:54 PM 15.1 °F 1.8 °F 8.1 °F 74% 30.34 in 10.0 mi West 11.5 mph - N/A   Clear